FREGAT R/B, 41176

Orbit data source: Space-Track

FREGAT R/B, 41176 is space debris originally from a launch on Thu, 17 Dec 2015 UTC launched from the French Guiana (FRGUI). Debris objects in space refer to the collection of defunct objects orbiting the Earth. Examples of debris include non-operational satellites, rocket bodies, and fragments generated from explosions, collisions, or faulty payload assembly.

Loading next visibility...
Identifier
41176, 2015-079C
Orbit
Active
Country
Flag of CISCIS
Related business
Manufacturer
Lavochkin
Mission
Spacecraft
Bus & Motor
FREGAT, Unknown motor
Mass
1,050 kg wet, 1,050 kg dry
Launch date (UTC)
2015-12-17 (10 years ago)
Launch vehicle
Unknown
Launch site
French Guiana (FRGUI)
Object type
Payload
Rocket body
Debris
Shape & HBR
Irr, 1.6 m
Radar Cross Section
11.055 m², Large (>1 m²)

Expand to show TLE details & history
Last TLE update: 1 day ago

TLE from 1 day ago
0 FREGAT R/B
1 41176U 15079C   25347.56794047  .00000008  00000-0  00000-0 0  9992
2 41176  55.6526 110.1465 0012805 251.0078 108.8182  1.67560827 61149
Epoch: 2025-12-13T13:37Z
TLE epoch observation values (Epoch: 2025-12-13T13:37:50.056Z)
Latitude
0.00005°
Longitude
-176.81888°
Altitude
23,576.998 km
Speed
3.647 km/s
True Right ascension
07h 20m 31s
True Declination
0° 00' 00"
Sunlit
Object was in daylight at epoch
Visualization orbit readout
Latitude
Unknown
Longitude
Unknown
Altitude
Unknown
Speed
Unknown
Apparent Right ascension
Unknown
Apparent Declination
Unknown
Sunlit
N/A
Visualization observer readout
Local Sidereal Time
19:46:01
Azimuth
Unknown
Elevation
Unknown
Doppler factor
Unknown
Orbital elements
Apogee altitude
23,602.606 km
Perigee altitude
23,525.923 km
Semi-major axis
29,942.402 km
Eccentricity
0.00128
Inclination
55.6526°
RAAN
110.1465°
Arg. of periapsis
251.0078°
True anomaly
108.95702°
Mean anomaly
108.8182°
Eccentric anomaly
108.88762°
Mean motion
0.4189 °/min
Orbital period
859.39 mins
BSTAR
0
Loading maneuver chart data...
Computing Atmospheric mass density...
Loading historical data...
Loading historical data...
Loading historical data...
Loading historical data...
Loading historical data...
Loading historical data...
Loading historical data...
Other satellites on launch #79 in the year 2015 (2015-12-17 UTC)

Documentation

Showing up to 5 results
|